Location: Ball Creek
(35.1593°N, 76.6324°W)
Time: 09:35:04
(UTC+00:00)

Daily predictions for brighter satellites

Satellite Brightness Start Highest point End
(mag) Time Altitude Azimuth Time Altitude Azimuth Time Altitude Azimuth
SL-8 Rocket 4.3 22:48:31 10° S 22:54:50 79° W 23:01:07 10° N
Cosmos 1356 Rocket 3.9 22:53:11 10° N 22:57:02 37° ENE 23:00:53 10° SSE
USA 238 DEB 4.0 22:51:21 10° S 22:57:36 46° ESE 23:04:00 10° NE
USA 238 4.0 22:51:29 10° S 22:57:42 45° ESE 23:04:05 10° NE
Cosmos 1727 Rocket 4.2 22:55:19 10° N 23:01:16 48° E 23:07:11 10° SSE
H-2A R/B 4.2 22:57:36 10° S 23:01:17 44° W 23:05:01 10° NNW
Cosmos 1842 Rocket 4.3 22:58:25 10° NNE 23:02:25 31° ENE 23:06:24 10° SE
COSMO-SKYMED 1 2.6 22:59:09 10° NNE 23:03:28 66° E 23:07:46 10° S
NOAA 12 4.2 23:01:11 10° SSE 23:06:25 85° WSW 23:11:41 10° NNW
Cosmos 1939 Rocket 4.1 23:05:06 10° ESE 23:07:59 20° ENE 23:10:55 10° NNE
SL-16 R/B 2.4 23:05:07 10° NNW 23:10:48 78° WSW 23:16:26 10° SSE
Cosmos 2227 4.2 23:06:38 10° S 23:12:19 68° ESE 23:17:59 10° NNE
USA 116 3.8 23:10:29 10° NNE 23:13:22 34° E 23:16:20 10° SSE
Cosmos 2263 Rocket 2.3 23:12:39 10° S 23:18:03 56° ESE 23:23:31 10° NNE
USA 102 4.4 23:13:54 10° SE 23:18:56 45° ENE 23:22:22 10° N
Cosmos 1076 Rocket 4.2 23:17:45 10° SSE 23:21:34 32° E 23:25:26 10° NNE
Cosmos 2221 2.9 23:18:57 10° N 23:22:59 38° E 23:27:00 10° SSE
Envisat 3.7 23:18:58 10° S 23:23:57 59° W 23:28:59 10° NNW
Cosmos 1603 4.2 23:19:01 10° N 23:24:11 35° ENE 23:29:16 10° SE
Meteor 2-12 Rocket 4.4 23:19:44 10° S 23:25:46 81° E 23:31:49 10° N
Cosmos 1892 4.2 23:24:04 10° SE 23:26:42 18° E 23:27:05 17° E
Cosmos 2251 Rocket 4.1 23:23:27 10° NNW 23:28:43 64° WSW 23:33:59 10° S
Cosmos 1821 Rocket 4.1 23:23:24 10° S 23:29:37 58° E 23:35:46 10° NNE
Cosmos 1437 3.1 23:26:57 10° SSE 23:29:45 36° E 23:31:57 15° NNE
NOAA 11 4.3 23:25:14 10° SSE 23:30:31 51° ENE 23:35:49 10° N
Cosmos 2058 3.4 23:29:10 10° SSE 23:32:56 36° E 23:36:45 10° NNE
STARLINK-46 2.3 23:30:47 10° SW 23:33:20 66° SE 23:34:18 31° ENE
ATLAS 3B R/B 3.6 23:33:40 10° SSE 23:39:05 26° ESE 23:41:50 20° ENE
Meteor 1-27 4.2 23:43:14 10° N 23:48:48 83° W 23:54:25 10° S
Cosmos 1371 Rocket 4.0 23:43:43 10° SSW 23:48:53 88° WNW 23:54:07 10° NNE
NOSS 3-2 (C) 3.3 23:45:00 10° SSW 23:50:28 61° ESE 23:54:52 19° NE
Cosmos 407 Rocket 3.7 23:46:00 10° N 23:51:04 47° ENE 23:56:02 10° SE
Cosmos 1943 3.4 23:45:56 10° N 23:51:22 46° ENE 23:56:46 10° SE
CENTAUR R/B 2.6 23:47:51 10° S 23:53:13 48° ESE 23:56:49 23° NE
CSL-04 Debris 4.1 23:48:04 10° SSE 23:53:27 86° ENE 23:58:53 10° NNW
CZ-4 R/B 2.1 23:50:11 10° S 23:54:11 57° W 23:58:17 10° NNW
Cosmos 1190 Rocket 4.3 23:49:09 10° N 23:54:13 44° ENE 23:59:15 10° SE
Cosmos 1420 Rocket 4.4 23:49:45 10° SSE 23:54:30 37° E 23:56:19 29° ENE
Atlas Centaur 2 2.7 23:51:04 10° WSW 23:54:51 36° S 23:57:48 18° SE
GPS 2-05 Rocket1 2.1 23:53:10 10° W 23:55:30 72° WNW 23:55:30 72° WNW
